TimeCDT,TemperatureF,Dew PointF,Humidity,Sea Level PressureIn,VisibilityMPH,Wind Direction,Wind SpeedMPH,Gust SpeedMPH,PrecipitationIn,Events,Conditions,WindDirDegrees,DateUTC
12:15 AM,48.0,47.3,97,29.67,1.2,Calm,Calm,-,N/A,,Overcast,0,2013-10-31 05:15:00
12:35 AM,47.7,47.3,99,29.66,1.0,Calm,Calm,-,N/A,,Overcast,0,2013-10-31 05:35:00
12:55 AM,47.7,47.3,99,29.65,1.0,Calm,Calm,-,N/A,,Overcast,0,2013-10-31 05:55:00
1:15 AM,47.5,46.9,98,29.64,0.5,Calm,Calm,-,N/A,Rain,Light Rain,0,2013-10-31 06:15:00
1:35 AM,47.7,47.3,99,29.63,0.8,Calm,Calm,-,N/A,,Light Drizzle,0,2013-10-31 06:35:00
1:55 AM,47.5,47.3,99,29.62,0.8,Calm,Calm,-,N/A,,Overcast,0,2013-10-31 06:55:00
2:15 AM,47.5,47.3,99,29.62,0.5,Calm,Calm,-,N/A,Fog,Fog,0,2013-10-31 07:15:00
2:35 AM,47.5,47.3,99,29.61,0.5,Calm,Calm,-,0.01,,Drizzle,0,2013-10-31 07:35:00
2:55 AM,47.5,47.3,99,29.60,0.5,Calm,Calm,-,0.01,,Light Drizzle,0,2013-10-31 07:55:00
3:15 AM,47.3,46.9,99,29.59,0.5,Calm,Calm,-,N/A,Fog,Fog,0,2013-10-31 08:15:00
3:35 AM,47.3,46.9,99,29.58,0.5,Calm,Calm,-,N/A,Fog,Fog,0,2013-10-31 08:35:00
3:55 AM,47.3,46.9,99,29.57,0.5,Calm,Calm,-,N/A,Fog,Fog,0,2013-10-31 08:55:00
4:15 AM,47.3,46.9,99,29.56,0.2,Calm,Calm,-,N/A,Fog,Fog,0,2013-10-31 09:15:00
4:35 AM,47.5,47.1,99,29.56,0.5,Calm,Calm,-,N/A,Fog,Fog,0,2013-10-31 09:35:00
4:55 AM,46.9,46.6,99,29.55,0.2,Calm,Calm,-,N/A,Fog,Fog,0,2013-10-31 09:55:00
5:15 AM,47.1,46.8,99,29.55,0.2,Calm,Calm,-,N/A,Fog,Fog,0,2013-10-31 10:15:00
5:35 AM,47.3,46.8,98,29.54,0.5,Calm,Calm,-,N/A,Fog,Fog,0,2013-10-31 10:35:00
5:55 AM,47.3,47.1,99,29.54,0.5,Calm,Calm,-,N/A,Fog,Fog,0,2013-10-31 10:55:00
6:15 AM,47.3,46.8,98,29.54,0.5,Calm,Calm,-,N/A,Fog,Fog,0,2013-10-31 11:15:00
6:35 AM,46.9,46.6,99,29.54,0.5,Calm,Calm,-,0.01,Fog,Fog,0,2013-10-31 11:35:00
6:55 AM,46.9,46.6,99,29.53,0.8,NNW,3.5,-,0.01,,Overcast,340,2013-10-31 11:55:00
7:15 AM,46.9,46.6,99,29.53,1.5,NW,5.8,-,N/A,,Overcast,320,2013-10-31 12:15:00
7:35 AM,46.6,46.4,99,29.53,1.2,NNW,4.6,-,N/A,,Overcast,330,2013-10-31 12:35:00
7:55 AM,46.4,46.0,99,29.52,1.8,NNW,3.5,-,N/A,,Drizzle,330,2013-10-31 12:55:00
8:15 AM,46.4,46.0,99,29.50,1.5,Calm,Calm,-,N/A,,Light Drizzle,0,2013-10-31 13:15:00
8:35 AM,46.4,45.9,98,29.48,1.0,ENE,3.5,-,N/A,,Overcast,70,2013-10-31 13:35:00
8:55 AM,46.4,46.0,99,29.49,1.2,Calm,Calm,-,N/A,,Overcast,0,2013-10-31 13:55:00
9:15 AM,46.6,46.2,99,29.50,1.2,West,3.5,-,0.01,,Overcast,280,2013-10-31 14:15:00
9:35 AM,46.4,46.0,99,29.50,1.2,West,6.9,-,0.01,,Overcast,270,2013-10-31 14:35:00
9:55 AM,46.0,45.7,99,29.49,1.0,WNW,5.8,-,0.01,,Overcast,290,2013-10-31 14:55:00
10:15 AM,45.5,45.1,99,29.48,0.2,WNW,6.9,-,N/A,Fog,Fog,300,2013-10-31 15:15:00
10:35 AM,45.0,44.6,99,29.48,0.2,West,8.1,-,N/A,Fog,Fog,280,2013-10-31 15:35:00
10:55 AM,44.6,44.2,99,29.47,0.5,WNW,6.9,-,N/A,Fog,Fog,300,2013-10-31 15:55:00
11:15 AM,44.6,44.2,99,29.46,1.2,West,5.8,-,N/A,,Drizzle,280,2013-10-31 16:15:00
11:35 AM,44.6,44.1,98,29.46,1.2,WNW,8.1,-,N/A,,Drizzle,290,2013-10-31 16:35:00
11:55 AM,44.2,43.9,99,29.45,1.2,WNW,9.2,-,N/A,Rain,Light Rain,300,2013-10-31 16:55:00
12:15 PM,44.2,43.9,99,29.44,1.5,WNW,9.2,-,0.01,Rain,Light Rain,300,2013-10-31 17:15:00
12:35 PM,44.4,43.9,98,29.43,2.0,NW,5.8,-,0.01,Rain,Light Rain,310,2013-10-31 17:35:00
12:55 PM,44.4,43.9,98,29.42,7.0,NW,8.1,-,0.01,,Overcast,310,2013-10-31 17:55:00
1:15 PM,44.2,43.9,99,29.41,5.0,WNW,6.9,-,N/A,,Overcast,300,2013-10-31 18:15:00
1:35 PM,44.1,43.7,99,29.41,3.0,WNW,6.9,-,N/A,,Overcast,290,2013-10-31 18:35:00
1:55 PM,44.1,43.7,99,29.40,1.5,West,5.8,-,N/A,,Overcast,280,2013-10-31 18:55:00
2:15 PM,43.9,43.3,98,29.39,1.5,West,6.9,-,N/A,,Overcast,280,2013-10-31 19:15:00
2:35 PM,43.9,43.3,98,29.38,2.0,West,6.9,-,N/A,,Overcast,280,2013-10-31 19:35:00
2:55 PM,43.9,43.3,98,29.38,2.0,WNW,8.1,-,N/A,,Overcast,290,2013-10-31 19:55:00
3:15 PM,43.9,43.3,98,29.37,2.5,West,8.1,-,N/A,,Overcast,280,2013-10-31 20:15:00
3:35 PM,43.5,43.0,98,29.37,3.0,West,5.8,-,N/A,,Overcast,280,2013-10-31 20:35:00
3:55 PM,43.2,42.8,99,29.36,2.0,West,8.1,-,N/A,,Overcast,280,2013-10-31 20:55:00
4:15 PM,43.2,42.8,99,29.36,1.5,WNW,6.9,-,N/A,,Drizzle,290,2013-10-31 21:15:00
4:35 PM,42.8,42.3,98,29.36,1.2,WNW,8.1,-,N/A,Rain,Light Rain,290,2013-10-31 21:35:00
4:55 PM,42.8,42.1,97,29.36,1.5,WNW,10.4,16.1,N/A,Rain,Light Rain,290,2013-10-31 21:55:00
5:15 PM,42.3,41.9,99,29.36,1.5,West,8.1,-,N/A,Rain,Light Rain,280,2013-10-31 22:15:00
5:35 PM,42.3,41.7,98,29.36,1.5,West,9.2,-,N/A,Rain,Light Rain,280,2013-10-31 22:35:00
5:55 PM,41.9,41.4,98,29.36,1.8,West,5.8,-,N/A,,Drizzle,280,2013-10-31 22:55:00
6:15 PM,41.9,41.4,98,29.36,2.0,West,8.1,-,0.01,,Drizzle,280,2013-10-31 23:15:00
6:35 PM,41.9,41.2,97,29.36,2.0,WNW,8.1,-,0.01,Rain,Rain,290,2013-10-31 23:35:00
6:55 PM,41.9,41.2,97,29.36,2.5,West,6.9,-,0.02,,Heavy Drizzle,280,2013-10-31 23:55:00
7:15 PM,41.5,41.0,98,29.36,2.5,West,6.9,-,0.01,,Heavy Drizzle,280,2013-11-01 00:15:00
7:35 PM,41.4,41.0,99,29.36,2.5,WNW,6.9,-,0.01,,Drizzle,290,2013-11-01 00:35:00
7:55 PM,41.2,40.6,98,29.36,2.0,West,5.8,-,0.01,Rain,Light Rain,280,2013-11-01 00:55:00
8:15 PM,41.0,40.5,98,29.36,2.0,West,5.8,-,N/A,Rain,Light Rain,280,2013-11-01 01:15:00
8:35 PM,41.0,40.3,97,29.35,2.0,West,6.9,-,0.01,Rain,Light Rain,280,2013-11-01 01:35:00
8:55 PM,41.0,40.3,97,29.35,2.0,WNW,6.9,-,0.01,Rain,Light Rain,290,2013-11-01 01:55:00
9:15 PM,41.0,40.3,97,29.35,3.0,WNW,6.9,-,N/A,Rain,Rain,290,2013-11-01 02:15:00
9:35 PM,41.0,40.5,98,29.35,7.0,WNW,6.9,-,0.01,Rain,Light Rain,290,2013-11-01 02:35:00
9:55 PM,41.2,40.6,98,29.35,4.0,NW,6.9,-,0.01,,Drizzle,310,2013-11-01 02:55:00
10:15 PM,41.4,41.0,99,29.36,2.5,NW,9.2,-,0.01,Rain,Heavy Rain,310,2013-11-01 03:15:00
10:35 PM,41.2,40.8,99,29.36,2.5,NW,9.2,-,0.02,,Drizzle,310,2013-11-01 03:35:00
10:55 PM,41.2,40.6,98,29.36,5.0,NW,8.1,-,0.02,,Light Drizzle,320,2013-11-01 03:55:00
11:15 PM,41.2,40.5,97,29.36,7.0,NW,8.1,-,N/A,,Overcast,320,2013-11-01 04:15:00
11:35 PM,41.2,40.5,97,29.36,7.0,NW,6.9,-,N/A,Rain,Rain,320,2013-11-01 04:35:00
11:55 PM,41.0,40.3,97,29.36,10.0,NW,10.4,-,0.01,Rain,Light Rain,320,2013-11-01 04:55:00